MOLNIYA 1-53

Last updated on Jan. 26, 2020, 4:40 a.m. UTC

1 13070U 82015A   20025.31806323 -.00001249  00000-0  25367-3 0  9995
2 13070  62.3917 344.8320 7497190 273.9468  12.0545  2.00679004277710
UTC
Height (km)
Latitude
Longitude
Inclination
Orbital Period
UTC large
Height (km)
Speed (km/s)
/
Latitude / Longitude
Inclination (degrees)
Orbital Period (minutes)
Azimuth
Elevation
Range (km)
Doppler Factor
iOS Compass Heading
iOS Angle

Next 30 passes for location: Hong Kong

Rise time Rise Azimuth (degrees) Set time Set Azimuth (degrees) Duration Max altitude (degrees)

No matching passes for this satellites